Regional Weather Roundup
Issued by NWS

Home | Current Version | Previous Version | Graphics & Text | Print | Product List | Glossary Off
Versions: 1 2 3 4 5 6 7 8 9 10 11 12 13 14 15 16 17 18 19 20 21 22 23 24 25 26 27 28 29 30 31 32 33 34 35 36 37 38 39 40 41 42 43 44 45 46 47 48 49 50

000
ASUS43 KTOP 181508
RWRKS

WEATHER ROUNDUP FOR KANSAS
NATIONAL WEATHER SERVICE GOODLAND KS
900 AM CST MON DEC 18 2017

NOTE:  "FAIR" INDICATES FEW OR NO CLOUDS BELOW 12,000 FEET WITH NO
SIGNIFICANT WEATHER AND/OR OBSTRUCTIONS TO VISIBILITY.

KSZ001>006-013>018-027>032-041>047-181600-
NORTHWEST KANSAS

CITY           SKY/WX    TMP DP  RH WIND       PRES   REMARKS
GOODLAND       CLEAR     28  23  81 SW10      29.99S WCI  19
HAYS           SUNNY     28  26  92 W6        30.06R
HILL CITY      CLEAR     28  24  85 SW7       30.04R
RUSSELL        SUNNY     25  23  92 W9        30.04R
$$

KSZ061>065-074>080-084>089-181600-
SOUTHWEST KANSAS

CITY           SKY/WX    TMP DP  RH WIND       PRES   REMARKS
DODGE CITY     CLOUDY    26  22  84 S7        30.05F FOG
ELKHART        CLOUDY    33  28  81 W10       30.05S WCI  25
GARDEN CITY    CLOUDY    20  18  92 W5        30.05R FOG
GREAT BEND     CLOUDY    27  23  85 SW8       30.08S
LIBERAL        SUNNY     27  22  81 NW6       30.08R
PRATT          CLOUDY    29  26  86 CALM      30.10S
$$

KSZ066>073-081>083-090>101-181600-
SOUTHEAST KANSAS

CITY           SKY/WX    TMP DP  RH WIND       PRES   REMARKS
CHANUTE        PTSUNNY   42  39  89 SW7       30.14S FOG
COFFEYVILLE    CLOUDY    44  41  89 SW8       30.16F FOG
HUTCHINSON     CLOUDY    29  28  96 S6        30.10S
MEDICINE LODGE   N/A     27  24  89 CALM      30.11S
NEWTON         CLOUDY    31  31 100 SW10      30.11F WCI  22
PARSONS        CLOUDY    43  41  93 SW8       30.16S FOG
WICHITA INTL   CLOUDY    31  30  96 CALM      30.12F
WICHITA JABRA  SUNNY     35  32  88 SW9       30.11F
WICHITA MCCONL SUNNY     30  29  94 SW5       30.12F
WINFIELD       FOG       32  32 100 S6        30.15F VSB 1/4
$$

KSZ007>012-019>026-033>040-048>060-102>105-181600-
NORTHEAST KANSAS

CITY           SKY/WX    TMP DP  RH WIND       PRES   REMARKS
CONCORDIA      CLOUDY    32  28  85 W9        30.03R
EMPORIA        SUNNY     36  32  85 SW6       30.09F
LAWRENCE       SUNNY     37  36  96 VRB5      30.08S FOG
MANHATTAN      SUNNY     32  29  88 SW5       30.08R
MARYSVILLE     SUNNY     32  30  93 SW12      30.03R WCI  23
OLATHE IND     MOSUNNY   38  37  97 SW9       30.09S FOG
OLATHE EXE     MOSUNNY   38  37  97 SW9       30.09R FOG
SALINA         CLOUDY    33  29  85 SW12      30.07S WCI  24
TOPEKA BILLARD SUNNY     36  36 100 CALM      30.08S
TOPEKA FORBES  SUNNY     35  33  92 SW9       30.07R FOG
$$



USA.gov is the U.S. government's official web portal to all federal, state and local government web resources and services.